Location: Il Ritiro
(43.4167°N, 13.1333°E)
Time: 01:37:26
(UTC+00:00)

Cosmos 1624 Rocket - Pass Details

Date: 05 July 2020
Orbit: 758 x 783 km, 74.0° (Epoch: 11 August)

Event Time Altitude Azimuth Distance (km) Brightness Sun altitude
Rises 22:08:08 0° 340° (NNW) 3,244 8.8 -22.3°
Reaches altitude 10° 22:10:32 10° 342° (NNW) 2,309 7.6 -22.4°
Maximum altitude 22:15:46 77° 69° (ENE) 786 4.0 -22.7°
Enters shadow 22:16:54 55° 139° (SE) 913 4.0 -22.7°
